Check out our new BloomSky Weather System.

Active alerts


No alerts


Thunder radar  blitzortung!


Rain radar more information rain snow radar


Visit our other weather sites:

Template documentation
and downloads

And another site



Weather Underground History page Text

Daily Summary for January 23, 2018 Units:  English    Metric   Both
« Previous Day
Next Day »
Daily Weekly Monthly Yearly Custom
  High: Low: Average:
Temperature: TemperatureF °F 34.3 °F 47.4 °F
Dew Point: DewpointF °F 25.3 °F 31.6 °F
Humidity: Humidity % 26 % 61 %
Wind Speed: WindSpeedMPH mph 0.0 mph 1.3 mph
Wind Gust: WindSpeedGustMPH mph - -
Wind:- - West
Pressure: PressureIn in 30.15 in -
Precipitation: 0.00 in    
Historical Graphs
 
 
Tabular Data for January 23, 2018
Time Temperature Dew Point Pressure Wind Wind Speed Wind Gust Humidity Rainfall Rate (Hourly)
TemperatureF °F DewpointF °F PressureIn in Calm     Humidity % HourlyPrecipIn in
00:02 40.6 °F 34.9 °F 30.15 in Calm   1.0 mph 80 % 0.00 in
00:07 40.6 °F 35.2 °F 30.15 in Calm   1.0 mph 81 % 0.00 in
00:12 40.3 °F 34.5 °F 30.15 in Calm     80 % 0.00 in
00:17 40.3 °F 34.9 °F 30.15 in Calm     81 % 0.00 in
00:22 40.1 °F 35.1 °F 30.15 in Calm     82 % 0.00 in
00:24 39.9 °F 34.9 °F 30.15 in Calm     82 % 0.00 in
00:29 39.9 °F 35.2 °F 30.16 in Calm     83 % 0.00 in
00:34 39.7 °F 34.7 °F 30.16 in Calm     82 % 0.00 in
00:39 39.4 °F 34.3 °F 30.16 in Calm     82 % 0.00 in
00:44 39.4 °F 34.9 °F 30.16 in Calm     84 % 0.00 in
00:49 39.4 °F 34.9 °F 30.16 in Calm     84 % 0.00 in
00:54 39.2 °F 35.1 °F 30.16 in Calm     85 % 0.00 in
00:59 38.8 °F 34.3 °F 30.15 in Calm     84 % 0.00 in
01:04 38.7 °F 34.5 °F 30.16 in Calm     85 % 0.00 in
01:09 38.5 °F 34.7 °F 30.16 in Calm     86 % 0.00 in
01:14 38.7 °F 35.1 °F 30.16 in Calm     87 % 0.00 in
01:19 38.8 °F 35.2 °F 30.16 in Calm     87 % 0.00 in
01:24 38.7 °F 35.1 °F 30.16 in Calm     87 % 0.00 in
01:29 38.5 °F 35.2 °F 30.16 in Calm     88 % 0.00 in
01:34 38.8 °F 36.0 °F 30.16 in Calm     89 % 0.00 in
01:39 38.8 °F 35.6 °F 30.16 in Calm   1.0 mph 88 % 0.00 in
01:44 38.7 °F 35.1 °F 30.16 in Calm   1.0 mph 87 % 0.00 in
01:54 37.9 °F 34.7 °F 30.16 in Calm     88 % 0.00 in
01:59 37.9 °F 34.7 °F 30.16 in Calm     88 % 0.00 in
02:04 37.8 °F 34.5 °F 30.16 in Calm     88 % 0.00 in
02:09 37.4 °F 34.2 °F 30.16 in Calm     88 % 0.00 in
02:14 37.4 °F 34.5 °F 30.16 in Calm     89 % 0.00 in
02:19 37.2 °F 34.3 °F 30.16 in Calm     89 % 0.00 in
02:24 37.4 °F 34.7 °F 30.16 in Calm     90 % 0.00 in
02:29 37.6 °F 34.7 °F 30.16 in Calm     89 % 0.00 in
02:34 37.6 °F 34.9 °F 30.17 in Calm     90 % 0.00 in
02:39 37.6 °F 34.9 °F 30.17 in Calm     90 % 0.00 in
02:45 37.6 °F 34.7 °F 30.17 in Calm     89 % 0.00 in
02:50 37.2 °F 34.3 °F 30.17 in Calm     89 % 0.00 in
02:55 37.0 °F 34.2 °F 30.17 in Calm     89 % 0.00 in
03:00 37.2 °F 34.5 °F 30.17 in Calm     90 % 0.00 in
03:10 37.6 °F 34.7 °F 30.17 in Calm     89 % 0.00 in
03:20 36.3 °F 33.1 °F 30.17 in Calm     88 % 0.00 in
03:25 36.1 °F 33.3 °F 30.17 in Calm     89 % 0.00 in
03:30 36.3 °F 34.0 °F 30.17 in Calm     91 % 0.00 in
03:35 36.7 °F 34.0 °F 30.17 in Calm     90 % 0.00 in
03:40 36.3 °F 33.6 °F 30.17 in Calm     90 % 0.00 in
03:50 36.0 °F 33.3 °F 30.17 in Calm     90 % 0.00 in
03:55 36.0 °F 33.6 °F 30.17 in Calm     91 % 0.00 in
04:00 36.0 °F 33.6 °F 30.17 in Calm     91 % 0.00 in
04:05 35.6 °F 32.9 °F 30.17 in Calm     90 % 0.00 in
04:10 35.2 °F 32.5 °F 30.18 in Calm     90 % 0.00 in
04:20 35.4 °F 33.3 °F 30.18 in Calm     92 % 0.00 in
04:25 35.4 °F 33.1 °F 30.18 in Calm     91 % 0.00 in
04:30 35.2 °F 32.9 °F 30.18 in Calm     91 % 0.00 in
04:40 34.9 °F 32.5 °F 30.18 in Calm     91 % 0.00 in
04:45 34.5 °F 32.4 °F 30.19 in Calm     92 % 0.00 in
04:50 34.3 °F 32.2 °F 30.19 in Calm     92 % 0.00 in
04:57 34.3 °F 32.2 °F 30.19 in Calm     92 % 0.00 in
05:02 34.7 °F 32.9 °F 30.19 in Calm     93 % 0.00 in
05:07 34.9 °F 33.1 °F 30.19 in Calm     93 % 0.00 in
05:12 34.5 °F 32.4 °F 30.19 in Calm     92 % 0.00 in
05:17 34.5 °F 32.7 °F 30.20 in Calm     93 % 0.00 in
05:22 35.1 °F 33.3 °F 30.20 in Calm     93 % 0.00 in
05:27 35.2 °F 33.4 °F 30.20 in Calm     93 % 0.00 in
05:32 35.2 °F 33.4 °F 30.20 in Calm     93 % 0.00 in
05:37 35.2 °F 33.4 °F 30.21 in Calm     93 % 0.00 in
05:42 35.1 °F 33.3 °F 30.21 in Calm     93 % 0.00 in
05:47 34.9 °F 32.7 °F 30.21 in Calm     92 % 0.00 in
05:52 34.7 °F 32.9 °F 30.21 in Calm     93 % 0.00 in
05:57 34.7 °F 32.9 °F 30.22 in Calm     93 % 0.00 in
06:02 34.9 °F 33.3 °F 30.22 in Calm     94 % 0.00 in
06:07 35.1 °F 33.4 °F 30.22 in Calm     94 % 0.00 in
06:12 35.2 °F 33.6 °F 30.22 in Calm     94 % 0.00 in
06:17 35.2 °F 33.4 °F 30.22 in Calm     93 % 0.00 in
06:22 35.2 °F 33.4 °F 30.22 in Calm     93 % 0.00 in
06:27 35.1 °F 33.3 °F 30.22 in Calm     93 % 0.00 in
06:37 35.1 °F 33.3 °F 30.22 in Calm     93 % 0.00 in
06:42 35.1 °F 33.3 °F 30.23 in Calm     93 % 0.00 in
06:47 34.9 °F 33.1 °F 30.23 in Calm     93 % 0.00 in
06:52 34.9 °F 33.1 °F 30.23 in Calm     93 % 0.00 in
06:57 34.7 °F 32.9 °F 30.24 in Calm     93 % 0.00 in
07:02 34.5 °F 32.7 °F 30.24 in Calm     93 % 0.00 in
07:12 34.7 °F 33.1 °F 30.24 in Calm     94 % 0.00 in
07:17 34.9 °F 33.1 °F 30.24 in Calm     93 % 0.00 in
07:22 35.2 °F 33.4 °F 30.24 in Calm   1.0 mph 93 % 0.00 in
07:27 35.8 °F 34.0 °F 30.24 in Calm   1.0 mph 93 % 0.00 in
07:32 36.1 °F 34.3 °F 30.25 in Calm   1.0 mph 93 % 0.00 in
07:37 36.7 °F 34.5 °F 30.25 in Calm   1.0 mph 92 % 0.00 in
07:42 36.9 °F 34.5 °F 30.25 in Calm   1.0 mph 91 % 0.00 in
07:47 37.0 °F 34.3 °F 30.25 in Calm   1.0 mph 90 % 0.00 in
07:52 37.2 °F 34.5 °F 30.26 in Calm   1.0 mph 90 % 0.00 in
07:57 37.6 °F 34.7 °F 30.26 in Calm   1.0 mph 89 % 0.00 in
08:02 38.1 °F 35.4 °F 30.26 in Calm   1.0 mph 90 % 0.00 in
08:07 39.6 °F 37.2 °F 30.26 in Calm   1.0 mph 91 % 0.00 in
08:12 41.7 °F 39.6 °F 30.26 in Calm     92 % 0.00 in
08:17 43.2 °F 40.1 °F 30.27 in NNW 1.0 mph   89 % 0.00 in
08:22 43.7 °F 36.3 °F 30.26 in Calm   2.0 mph 75 % 0.00 in
08:32 45.0 °F 34.3 °F 30.27 in NW 2.0 mph 3.0 mph 66 % 0.00 in
08:42 46.0 °F 34.5 °F 30.28 in Calm   3.0 mph 64 % 0.00 in
08:47 46.6 °F 34.7 °F 30.28 in NNW 1.0 mph 3.0 mph 63 % 0.00 in
08:52 47.1 °F 34.7 °F 30.28 in NW 1.0 mph 3.0 mph 62 % 0.00 in
09:03 48.9 °F 34.9 °F 30.28 in NNW 1.0 mph 4.0 mph 58 % 0.00 in
09:08 49.6 °F 34.2 °F 30.28 in WNW 2.0 mph 4.0 mph 55 % 0.00 in
09:13 50.2 °F 33.3 °F 30.28 in WNW 4.0 mph 6.0 mph 52 % 0.00 in
09:18 50.4 °F 33.8 °F 30.29 in North 3.0 mph 6.0 mph 53 % 0.00 in
09:28 51.8 °F 34.2 °F 30.29 in North 1.0 mph 6.0 mph 51 % 0.00 in
09:33 52.3 °F 34.2 °F 30.29 in NNW 3.0 mph 6.0 mph 50 % 0.00 in
09:38 52.9 °F 34.2 °F 30.29 in NW 2.0 mph 7.0 mph 49 % 0.00 in
09:48 53.8 °F 32.9 °F 30.30 in North 2.0 mph 7.0 mph 45 % 0.00 in
09:53 54.0 °F 33.1 °F 30.30 in North 3.0 mph 8.0 mph 45 % 0.00 in
09:58 54.9 °F 34.5 °F 30.30 in North 5.0 mph 8.0 mph 46 % 0.00 in
10:03 55.8 °F 33.1 °F 30.30 in North 4.0 mph 8.0 mph 42 % 0.00 in
10:08 55.9 °F 32.5 °F 30.30 in NNW 4.0 mph 7.0 mph 41 % 0.00 in
10:13 56.5 °F 33.1 °F 30.30 in NW 2.0 mph 7.0 mph 41 % 0.00 in
10:23 57.4 °F 30.6 °F 30.31 in West 3.0 mph 7.0 mph 36 % 0.00 in
10:28 57.6 °F 28.6 °F 30.31 in NNW 4.0 mph 7.0 mph 33 % 0.00 in
10:33 57.6 °F 27.9 °F 30.31 in NW 7.0 mph 8.0 mph 32 % 0.00 in
10:38 57.9 °F 28.9 °F 30.31 in North 5.0 mph 8.0 mph 33 % 0.00 in
10:43 58.5 °F 27.9 °F 30.31 in NNW 6.0 mph 8.0 mph 31 % 0.00 in
10:48 58.6 °F 27.3 °F 30.30 in North 4.0 mph 8.0 mph 30 % 0.00 in
10:53 58.8 °F 28.2 °F 30.30 in NNE 6.0 mph 8.0 mph 31 % 0.00 in
10:58 59.0 °F 27.7 °F 30.30 in West 3.0 mph 8.0 mph 30 % 0.00 in
11:03 59.4 °F 27.1 °F 30.30 in NE 2.0 mph 11.0 mph 29 % 0.00 in
11:13 59.5 °F 26.4 °F 30.30 in North 4.0 mph 11.0 mph 28 % 0.00 in
11:18 59.4 °F 25.3 °F 30.30 in NW 4.0 mph 11.0 mph 27 % 0.00 in
11:23 59.2 °F 27.0 °F 30.29 in NW 1.0 mph 11.0 mph 29 % 0.00 in
11:28 59.4 °F 26.2 °F 30.29 in NNW 5.0 mph 10.0 mph 28 % 0.00 in
11:33 59.7 °F 26.6 °F 30.29 in Calm   10.0 mph 28 % 0.00 in
11:38 60.3 °F 26.1 °F 30.29 in NNE 2.0 mph 10.0 mph 27 % 0.00 in
11:43 60.3 °F 27.0 °F 30.28 in NNW 3.0 mph 10.0 mph 28 % 0.00 in
11:54 60.1 °F 26.1 °F 30.28 in NNW 5.0 mph 10.0 mph 27 % 0.00 in
12:04 61.0 °F 26.8 °F 30.28 in NW 2.0 mph 10.0 mph 27 % 0.00 in
12:09 60.8 °F 27.5 °F 30.27 in Calm   10.0 mph 28 % 0.00 in
12:14 61.3 °F 27.1 °F 30.27 in WNW 3.0 mph 9.0 mph 27 % 0.00 in
12:19 61.3 °F 27.1 °F 30.27 in NNW 7.0 mph 9.0 mph 27 % 0.00 in
12:24 60.8 °F 26.6 °F 30.27 in NW 2.0 mph 10.0 mph 27 % 0.00 in
12:29 61.3 °F 27.1 °F 30.26 in NW 3.0 mph 10.0 mph 27 % 0.00 in
12:34 61.5 °F 26.2 °F 30.26 in North 5.0 mph 10.0 mph 26 % 0.00 in
12:39 61.7 °F 27.3 °F 30.25 in NNW 5.0 mph 10.0 mph 27 % 0.00 in
12:49 61.9 °F 28.4 °F 30.25 in NW 5.0 mph 10.0 mph 28 % 0.00 in
12:54 62.1 °F 27.7 °F 30.25 in ESE 3.0 mph 8.0 mph 27 % 0.00 in
12:59 62.1 °F 26.8 °F 30.25 in NNW 3.0 mph 9.0 mph 26 % 0.00 in
13:09 61.5 °F 26.2 °F 30.24 in WNW 5.0 mph 14.0 mph 26 % 0.00 in
13:19 61.5 °F 26.2 °F 30.24 in West 4.0 mph 14.0 mph 26 % 0.00 in
13:24 61.7 °F 27.3 °F 30.24 in NNW 4.0 mph 11.0 mph 27 % 0.00 in
13:29 61.5 °F 26.2 °F 30.24 in NNW 6.0 mph 11.0 mph 26 % 0.00 in
13:34 61.3 °F 26.2 °F 30.24 in NW 3.0 mph 11.0 mph 26 % 0.00 in
13:44 61.2 °F 26.1 °F 30.23 in NW 5.0 mph 12.0 mph 26 % 0.00 in
13:49 61.2 °F 27.0 °F 30.23 in North 9.0 mph 12.0 mph 27 % 0.00 in
13:54 61.3 °F 26.2 °F 30.23 in NW 7.0 mph 12.0 mph 26 % 0.00 in
13:59 61.3 °F 27.1 °F 30.22 in North 10.0 mph 12.0 mph 27 % 0.00 in
14:04 61.5 °F 28.0 °F 30.23 in North 5.0 mph 11.0 mph 28 % 0.00 in
14:09 61.5 °F 27.1 °F 30.23 in NW 3.0 mph 11.0 mph 27 % 0.00 in
14:14 61.9 °F 27.5 °F 30.23 in NNW 6.0 mph 11.0 mph 27 % 0.00 in
14:19 61.7 °F 29.1 °F 30.23 in NW 8.0 mph 9.0 mph 29 % 0.00 in
14:24 61.3 °F 27.9 °F 30.23 in NW 2.0 mph 9.0 mph 28 % 0.00 in
14:29 61.5 °F 28.0 °F 30.22 in NW 3.0 mph 9.0 mph 28 % 0.00 in
14:34 61.5 °F 27.1 °F 30.23 in North 8.0 mph 11.0 mph 27 % 0.00 in
14:39 61.9 °F 28.4 °F 30.22 in NNW 2.0 mph 11.0 mph 28 % 0.00 in
14:44 61.9 °F 27.5 °F 30.22 in North 5.0 mph 11.0 mph 27 % 0.00 in
14:49 61.9 °F 28.4 °F 30.22 in NNW 5.0 mph 11.0 mph 28 % 0.00 in
14:54 61.9 °F 27.5 °F 30.22 in North 4.0 mph 11.0 mph 27 % 0.00 in
14:59 61.5 °F 28.9 °F 30.22 in NNW 3.0 mph 11.0 mph 29 % 0.00 in
15:04 61.3 °F 28.8 °F 30.22 in NNW 5.0 mph 9.0 mph 29 % 0.00 in
15:09 61.3 °F 28.8 °F 30.22 in NW 4.0 mph 9.0 mph 29 % 0.00 in
15:15 61.3 °F 28.8 °F 30.22 in NNW 3.0 mph 10.0 mph 29 % 0.00 in
15:20 61.5 °F 28.9 °F 30.22 in NW 2.0 mph 10.0 mph 29 % 0.00 in
15:25 61.7 °F 28.2 °F 30.22 in NW 6.0 mph 10.0 mph 28 % 0.00 in
15:30 61.3 °F 28.8 °F 30.22 in NW 6.0 mph 9.0 mph 29 % 0.00 in
15:35 61.3 °F 28.8 °F 30.22 in NNW 3.0 mph 9.0 mph 29 % 0.00 in
15:40 61.9 °F 29.3 °F 30.22 in North 3.0 mph 9.0 mph 29 % 0.00 in
15:45 62.1 °F 28.6 °F 30.22 in NNE 6.0 mph 8.0 mph 28 % 0.00 in
15:50 62.2 °F 27.9 °F 30.22 in NNE 4.0 mph 9.0 mph 27 % 0.00 in
15:55 62.2 °F 27.9 °F 30.22 in North 5.0 mph 10.0 mph 27 % 0.00 in
16:00 62.1 °F 27.7 °F 30.22 in North 3.0 mph 10.0 mph 27 % 0.00 in
16:05 62.4 °F 28.9 °F 30.22 in NW 3.0 mph 11.0 mph 28 % 0.00 in
16:10 62.4 °F 28.0 °F 30.22 in NNW 3.0 mph 11.0 mph 27 % 0.00 in
16:15 62.2 °F 27.9 °F 30.23 in NW 4.0 mph 8.0 mph 27 % 0.00 in
16:20 62.1 °F 27.7 °F 30.23 in NW 4.0 mph 8.0 mph 27 % 0.00 in
16:25 62.1 °F 27.7 °F 30.23 in NNW 3.0 mph 8.0 mph 27 % 0.00 in
16:30 61.9 °F 27.5 °F 30.23 in ENE 3.0 mph 8.0 mph 27 % 0.00 in
16:35 61.5 °F 26.2 °F 30.23 in NNW 1.0 mph 7.0 mph 26 % 0.00 in
16:45 61.3 °F 27.9 °F 30.23 in NNW 2.0 mph 7.0 mph 28 % 0.00 in
16:50 61.2 °F 28.6 °F 30.23 in NNW 3.0 mph 6.0 mph 29 % 0.00 in
16:55 61.2 °F 28.6 °F 30.24 in Calm   6.0 mph 29 % 0.00 in
17:00 60.8 °F 27.5 °F 30.24 in NW 2.0 mph 7.0 mph 28 % 0.00 in
17:05 60.6 °F 28.2 °F 30.23 in NW 2.0 mph 7.0 mph 29 % 0.00 in
17:10 60.4 °F 28.0 °F 30.24 in North 3.0 mph 7.0 mph 29 % 0.00 in
17:15 60.3 °F 28.8 °F 30.24 in NNW 1.0 mph 4.0 mph 30 % 0.00 in
17:25 59.5 °F 28.9 °F 30.24 in Calm   4.0 mph 31 % 0.00 in
17:30 59.2 °F 28.6 °F 30.24 in Calm   4.0 mph 31 % 0.00 in
17:40 58.3 °F 29.3 °F 30.24 in NNE 1.0 mph 2.0 mph 33 % 0.00 in
17:46 57.9 °F 28.9 °F 30.25 in NNE 1.0 mph 2.0 mph 33 % 0.00 in
17:51 57.6 °F 29.5 °F 30.25 in Calm   2.0 mph 34 % 0.00 in
17:56 57.2 °F 29.1 °F 30.25 in Calm   2.0 mph 34 % 0.00 in
18:01 56.8 °F 29.5 °F 30.25 in Calm   2.0 mph 35 % 0.00 in
18:06 56.3 °F 29.7 °F 30.25 in Calm   2.0 mph 36 % 0.00 in
18:11 55.8 °F 29.8 °F 30.25 in Calm   1.0 mph 37 % 0.00 in
18:16 55.0 °F 29.3 °F 30.25 in Calm   1.0 mph 37 % 0.00 in
18:21 54.1 °F 29.7 °F 30.25 in Calm   1.0 mph 39 % 0.00 in
18:26 53.6 °F 29.8 °F 30.25 in Calm   1.0 mph 40 % 0.00 in
18:31 53.1 °F 30.0 °F 30.26 in Calm   1.0 mph 41 % 0.00 in
18:36 52.5 °F 30.7 °F 30.26 in Calm   1.0 mph 43 % 0.00 in
18:41 51.4 °F 30.2 °F 30.26 in Calm     44 % 0.00 in
18:46 50.5 °F 30.6 °F 30.27 in Calm   1.0 mph 46 % 0.00 in
18:51 50.5 °F 31.6 °F 30.27 in Calm   1.0 mph 48 % 0.00 in
18:56 50.2 °F 31.3 °F 30.27 in Calm   1.0 mph 48 % 0.00 in
19:01 49.5 °F 31.1 °F 30.27 in Calm   1.0 mph 49 % 0.00 in
19:06 49.1 °F 31.3 °F 30.27 in Calm     50 % 0.00 in
19:11 48.9 °F 31.1 °F 30.28 in Calm     50 % 0.00 in
19:16 48.6 °F 31.3 °F 30.28 in Calm     51 % 0.00 in
19:21 47.8 °F 31.5 °F 30.28 in Calm     53 % 0.00 in
19:26 47.3 °F 32.0 °F 30.28 in Calm     55 % 0.00 in
19:31 47.1 °F 32.7 °F 30.28 in Calm     57 % 0.00 in
19:36 47.1 °F 33.1 °F 30.28 in Calm     58 % 0.00 in
19:46 46.9 °F 32.9 °F 30.28 in Calm     58 % 0.00 in
19:51 46.4 °F 32.4 °F 30.29 in Calm     58 % 0.00 in
19:56 45.7 °F 32.2 °F 30.29 in Calm     59 % 0.00 in
20:01 44.8 °F 31.8 °F 30.29 in Calm     60 % 0.00 in
20:06 44.2 °F 32.4 °F 30.29 in Calm     63 % 0.00 in
20:11 44.2 °F 33.3 °F 30.29 in Calm     65 % 0.00 in
20:16 44.6 °F 33.6 °F 30.29 in Calm     65 % 0.00 in
20:21 44.6 °F 33.6 °F 30.29 in Calm     65 % 0.00 in
20:42 43.9 °F 33.3 °F 30.29 in Calm     66 % 0.00 in
20:47 43.7 °F 33.8 °F 30.30 in Calm     68 % 0.00 in
20:52 43.5 °F 34.0 °F 30.30 in Calm     69 % 0.00 in
20:57 43.3 °F 34.2 °F 30.30 in Calm     70 % 0.00 in
21:02 43.3 °F 34.2 °F 30.30 in Calm     70 % 0.00 in
21:12 43.0 °F 34.2 °F 30.30 in Calm     71 % 0.00 in
21:17 43.0 °F 34.5 °F 30.30 in Calm     72 % 0.00 in
21:22 43.0 °F 34.5 °F 30.30 in Calm     72 % 0.00 in
21:27 43.0 °F 34.5 °F 30.30 in Calm     72 % 0.00 in
21:32 42.6 °F 34.2 °F 30.30 in Calm     72 % 0.00 in
21:42 42.1 °F 34.3 °F 30.31 in Calm     74 % 0.00 in
21:47 41.7 °F 34.0 °F 30.31 in Calm     74 % 0.00 in
21:53 41.5 °F 34.2 °F 30.31 in Calm     75 % 0.00 in
22:03 41.4 °F 34.7 °F 30.32 in Calm     77 % 0.00 in
22:08 41.2 °F 34.5 °F 30.32 in Calm     77 % 0.00 in
22:18 41.4 °F 35.4 °F 30.31 in Calm   1.0 mph 79 % 0.00 in
22:23 41.5 °F 35.2 °F 30.31 in Calm   1.0 mph 78 % 0.00 in
22:33 41.5 °F 34.9 °F 30.32 in Calm   1.0 mph 77 % 0.00 in
22:38 41.4 °F 35.1 °F 30.32 in Calm     78 % 0.00 in
22:48 40.6 °F 34.3 °F 30.32 in Calm     78 % 0.00 in
22:58 41.2 °F 35.4 °F 30.32 in Calm   1.0 mph 80 % 0.00 in
23:03 41.2 °F 35.2 °F 30.32 in Calm   1.0 mph 79 % 0.00 in
23:08 41.2 °F 35.2 °F 30.32 in Calm   1.0 mph 79 % 0.00 in
23:13 41.0 °F 35.1 °F 30.32 in Calm     79 % 0.00 in
23:28 39.6 °F 33.6 °F 30.33 in Calm     79 % 0.00 in
23:33 39.0 °F 33.1 °F 30.33 in Calm     79 % 0.00 in
23:38 39.0 °F 33.6 °F 30.32 in Calm     81 % 0.00 in
23:43 39.4 °F 34.7 °F 30.33 in Calm     83 % 0.00 in
23:48 39.9 °F 34.9 °F 30.33 in Calm     82 % 0.00 in
23:53 40.3 °F 34.9 °F 30.32 in Calm     81 % 0.00 in
23:58 40.6 °F 34.9 °F 30.32 in Calm   1.0 mph 80 % 0.00 in
Spring, Texas: Villages of Bridgestone
Compliments of Weather Underground - 2.75 mb

Script developed by  Jim McMurry - jmcmurry@mwt.net Adapted for the template by  Wim van der Kuil - Leuven-Template.eu

You find our weather info also at:

UK Metoffice

WeatherCloud

Weather Underground

Mid-South Weather Network

AWEKAS

Citizen Weather Observer Program (CWOP)

HAMweather, WeatherForYou, PWS Weather

Equipment we use:

Weather-station
Davis Vantage Vue

Weather-program
Meteohub

Weather-server
Debian 7.9 x86 (Guest)

Provider
DreamHost

Davis Vantage Vue

Meteohub

Debian 7.9 x86 (Guest)

DreamHost